• In Hungary
  • List of Countries
  • For 7 days
  • Water Temperature
  • Satellite Maps
  • Weather Map
  • News
  • Weather Widgets
  • user-avatar
    Login

    Hourly Weather Polanica Zdroj

    Today, 21 August, Tuesday

    Time Temperature Precipitation Wind Pressure Humidity
    00:00 +18°C° 0 mm 2 mps 724 mmHg 82%
    01:00 +18°C° 0 mm 1 mps 724 mmHg 84%
    02:00 +18°C° 0 mm 1 mps 724 mmHg 85%
    03:00 +18°C° 0 mm 1 mps 724 mmHg 87%
    04:00 +16°C° 0 mm 1 mps 724 mmHg 88%
    05:00 +18°C° 0 mm 1 mps 725 mmHg 84%
    06:00 +19°C° 0 mm 1 mps 725 mmHg 80%
    07:00 +20°C° 0 mm 1 mps 725 mmHg 75%
    08:00 +21°C° 0.1 mm 1 mps 726 mmHg 71%
    09:00 +23°C° 0.1 mm 2 mps 726 mmHg 66%
    10:00 +24°C° 0.1 mm 2 mps 726 mmHg 61%
    11:00 +24°C° 0.1 mm 2 mps 726 mmHg 61%
    12:00 +24°C° 0.1 mm 2 mps 726 mmHg 61%
    13:00 +24°C° 0.1 mm 2 mps 726 mmHg 60%
    14:00 +24°C° 0.1 mm 2 mps 726 mmHg 60%
    15:00 +24°C° 0.1 mm 2 mps 726 mmHg 59%
    16:00 +24°C° 0.1 mm 2 mps 725 mmHg 59%
    17:00 +23°C° 0 mm 2 mps 725 mmHg 64%
    18:00 +20°C° 0 mm 2 mps 725 mmHg 69%
    19:00 +19°C° 0 mm 2 mps 725 mmHg 74%
    20:00 +19°C° 0 mm 1 mps 725 mmHg 76%
    21:00 +18°C° 0 mm 1 mps 726 mmHg 78%
    22:00 +18°C° 0 mm 1 mps 726 mmHg 80%
    23:00 +16°C° 0 mm 1 mps 726 mmHg 81%

    Tomorrow, 22 August, Wednesday

    Time Temperature Precipitation Wind Pressure Humidity
    00:00 +16°C° 0 mm 1 mps 726 mmHg 82%
    01:00 +15°C° 0 mm 1 mps 726 mmHg 83%
    02:00 +15°C° 0 mm 1 mps 726 mmHg 84%
    03:00 +15°C° 0 mm 1 mps 726 mmHg 85%
    04:00 +15°C° 0 mm 1 mps 725 mmHg 85%
    05:00 +16°C° 0 mm 1 mps 726 mmHg 81%
    06:00 +18°C° 0 mm 1 mps 726 mmHg 76%
    07:00 +19°C° 0 mm 1 mps 726 mmHg 71%
    08:00 +21°C° 0 mm 1 mps 726 mmHg 65%
    09:00 +23°C° 0 mm 1 mps 726 mmHg 59%
    10:00 +24°C° 0 mm 2 mps 726 mmHg 52%
    11:00 +25°C° 0 mm 2 mps 726 mmHg 50%
    12:00 +26°C° 0 mm 2 mps 726 mmHg 48%
    13:00 +26°C° 0 mm 2 mps 725 mmHg 46%
    14:00 +27°C° 0 mm 1 mps 725 mmHg 46%
    15:00 +27°C° 0 mm 1 mps 725 mmHg 46%
    16:00 +27°C° 0 mm 1 mps 724 mmHg 46%
    17:00 +25°C° 0 mm 1 mps 724 mmHg 51%
    18:00 +23°C° 0 mm 1 mps 724 mmHg 57%
    19:00 +22°C° 0 mm 1 mps 724 mmHg 63%
    20:00 +21°C° 0 mm 1 mps 724 mmHg 66%
    21:00 +20°C° 0 mm 1 mps 724 mmHg 68%
    22:00 +19°C° 0 mm 1 mps 724 mmHg 71%
    23:00 +19°C° 0 mm 1 mps 724 mmHg 72%

    Day after tomorrow, 23 August, Thursday

    Time Temperature Precipitation Wind Pressure Humidity
    00:00 +19°C° 0 mm 1 mps 723 mmHg 74%
    01:00 +18°C° 0 mm 1 mps 723 mmHg 75%
    02:00 +18°C° 0 mm 1 mps 723 mmHg 75%
    03:00 +18°C° 0 mm 1 mps 723 mmHg 75%
    04:00 +18°C° 0 mm 1 mps 723 mmHg 76%
    05:00 +19°C° 0 mm 1 mps 723 mmHg 72%
    06:00 +21°C° 0 mm 1 mps 723 mmHg 69%
    07:00 +22°C° 0 mm 1 mps 723 mmHg 65%
    08:00 +24°C° 0 mm 1 mps 723 mmHg 60%
    09:00 +26°C° 0 mm 1 mps 723 mmHg 54%
    10:00 +28°C° 0 mm 2 mps 723 mmHg 49%
    11:00 +28°C° 0 mm 2 mps 723 mmHg 47%
    12:00 +29°C° 0 mm 2 mps 722 mmHg 46%
    13:00 +30°C° 0 mm 2 mps 722 mmHg 44%
    14:00 +30°C° 0 mm 2 mps 722 mmHg 45%
    15:00 +30°C° 0 mm 2 mps 721 mmHg 45%
    16:00 +30°C° 0 mm 2 mps 721 mmHg 45%
    17:00 +28°C° 0.1 mm 1 mps 721 mmHg 51%
    18:00 +26°C° 0.1 mm 1 mps 721 mmHg 57%
    19:00 +25°C° 0.1 mm 1 mps 720 mmHg 63%
    20:00 +24°C° 1.3 mm 1 mps 720 mmHg 69%
    21:00 +23°C° 1.3 mm 1 mps 720 mmHg 74%
    22:00 +22°C° 1.3 mm 1 mps 720 mmHg 80%
    23:00 +21°C° 0.2 mm 1 mps 720 mmHg 81%

    24 August, Friday

    Time Temperature Precipitation Wind Pressure Humidity
    00:00 +21°C° 0.2 mm 1 mps 720 mmHg 82%
    01:00 +21°C° 0.2 mm 1 mps 719 mmHg 83%
    02:00 +20°C° 0.1 mm 1 mps 719 mmHg 84%
    03:00 +19°C° 0.1 mm 2 mps 719 mmHg 85%
    04:00 +18°C° 0.1 mm 2 mps 718 mmHg 86%
    05:00 +19°C° 0 mm 2 mps 718 mmHg 84%
    06:00 +20°C° 0 mm 2 mps 718 mmHg 81%
    07:00 +21°C° 0 mm 2 mps 718 mmHg 78%
    08:00 +22°C° 0 mm 3 mps 719 mmHg 72%
    09:00 +24°C° 0 mm 3 mps 719 mmHg 66%
    10:00 +26°C° 0 mm 3 mps 719 mmHg 60%
    11:00 +26°C° 0.4 mm 3 mps 719 mmHg 61%
    12:00 +25°C° 0.4 mm 4 mps 719 mmHg 63%
    13:00 +25°C° 0.4 mm 4 mps 718 mmHg 64%
    14:00 +25°C° 0.4 mm 4 mps 718 mmHg 66%
    15:00 +24°C° 0.4 mm 3 mps 718 mmHg 68%
    16:00 +24°C° 0.4 mm 3 mps 718 mmHg 69%
    17:00 +21°C° 0.6 mm 3 mps 718 mmHg 74%
    18:00 +20°C° 0.6 mm 2 mps 718 mmHg 78%
    19:00 +19°C° 0.6 mm 2 mps 719 mmHg 82%
    20:00 +18°C° 0 mm 2 mps 719 mmHg 82%
    21:00 +17°C° 0 mm 2 mps 719 mmHg 82%
    22:00 +16°C° 0 mm 2 mps 719 mmHg 83%
    23:00 +16°C° 0 mm 2 mps 720 mmHg 82%

    25 August, Saturday

    Time Temperature Precipitation Wind Pressure Humidity
    00:00 +15°C° 0 mm 2 mps 720 mmHg 81%
    01:00 +15°C° 0 mm 2 mps 720 mmHg 80%
    02:00 +15°C° 0 mm 2 mps 720 mmHg 79%
    03:00 +14°C° 0 mm 2 mps 720 mmHg 79%
    04:00 +14°C° 0 mm 2 mps 720 mmHg 78%
    05:00 +14°C° 0 mm 1 mps 721 mmHg 75%
    06:00 +14°C° 0 mm 1 mps 721 mmHg 72%
    07:00 +15°C° 0 mm 1 mps 721 mmHg 70%
    08:00 +16°C° 0 mm 1 mps 721 mmHg 63%
    09:00 +17°C° 0 mm 2 mps 721 mmHg 57%
    10:00 +18°C° 0 mm 2 mps 722 mmHg 50%
    11:00 +19°C° 0 mm 2 mps 721 mmHg 48%
    12:00 +19°C° 0 mm 2 mps 721 mmHg 46%
    13:00 +20°C° 0 mm 1 mps 721 mmHg 43%
    14:00 +20°C° 0 mm 1 mps 720 mmHg 45%
    15:00 +20°C° 0 mm 1 mps 720 mmHg 47%
    16:00 +18°C° 0 mm 2 mps 720 mmHg 48%
    17:00 +18°C° 0.2 mm 1 mps 719 mmHg 56%
    18:00 +16°C° 0.2 mm 1 mps 719 mmHg 63%
    19:00 +15°C° 0.2 mm 1 mps 719 mmHg 71%
    20:00 +14°C° 0.2 mm 1 mps 719 mmHg 74%
    21:00 +14°C° 0.2 mm 1 mps 719 mmHg 77%
    22:00 +13°C° 0.2 mm 1 mps 719 mmHg 81%
    23:00 +13°C° 0.3 mm 1 mps 718 mmHg 82%

    26 August, Sunday

    Time Temperature Precipitation Wind Pressure Humidity
    00:00 +13°C° 0.3 mm 1 mps 718 mmHg 84%
    01:00 +12°C° 0.3 mm 1 mps 717 mmHg 86%
    02:00 +12°C° 0.3 mm 1 mps 717 mmHg 87%
    03:00 +12°C° 0.3 mm 1 mps 716 mmHg 87%
    04:00 +12°C° 0.3 mm 1 mps 716 mmHg 88%
    05:00 +12°C° 1.9 mm 1 mps 716 mmHg 89%
    06:00 +12°C° 1.9 mm 1 mps 715 mmHg 91%
    07:00 +12°C° 1.9 mm 1 mps 715 mmHg 92%
    08:00 +12°C° 2.1 mm 2 mps 715 mmHg 92%
    09:00 +12°C° 2.1 mm 2 mps 714 mmHg 91%
    10:00 +12°C° 2.1 mm 2 mps 714 mmHg 91%
    11:00 +12°C° 1.3 mm 2 mps 714 mmHg 90%
    12:00 +13°C° 1.3 mm 2 mps 714 mmHg 89%
    13:00 +13°C° 1.3 mm 2 mps 714 mmHg 89%
    14:00 +13°C° 0.2 mm 2 mps 714 mmHg 87%
    15:00 +13°C° 0.2 mm 3 mps 715 mmHg 85%
    16:00 +13°C° 0.2 mm 3 mps 715 mmHg 83%
    17:00 +13°C° 0.1 mm 3 mps 715 mmHg 86%
    18:00 +12°C° 0.1 mm 3 mps 715 mmHg 88%
    19:00 +13°C° 0.1 mm 2 mps 716 mmHg 91%
    20:00 +11°C° 0.1 mm 3 mps 716 mmHg 92%
    21:00 +11°C° 0.1 mm 3 mps 717 mmHg 92%
    22:00 +11°C° 0.1 mm 3 mps 717 mmHg 93%
    23:00 +11°C° 0.2 mm 3 mps 718 mmHg 93%
    Show more